Location: Maiden
(35.5760°N, 81.2120°W)
Time: 11:06:00
(UTC-04:00)

Explorer 11/Cluster Stage 4 - All Passes

Search period start: 04 August 2020 00:00
Search period end: 14 August 2020 00:00
Orbit: 467 x 1258 km, 28.8° (Epoch: 04 August)

Date Brightness Start Highest point End Pass type
(mag) Time Alt. Az. Time Alt. Az. Time Alt. Az.
04 Aug - 00:59:05 10° SSW 01:04:37 21° SSE 01:09:36 10° ESE night (unlit)
04 Aug - 02:46:38 10° SW 02:53:11 38° S 02:58:36 10° ESE visible
04 Aug - 04:35:38 10° WSW 04:41:38 43° S 04:46:27 10° ESE visible
04 Aug - 06:25:12 10° WSW 06:29:40 26° SSW 06:33:26 10° SE daylight
05 Aug - 00:47:31 10° SSW 00:53:38 25° SSE 00:59:09 10° ESE night (unlit)
05 Aug - 02:35:23 10° WSW 02:42:16 41° S 02:47:59 10° ESE visible
05 Aug - 04:24:33 10° WSW 04:30:47 43° S 04:35:49 10° ESE visible
05 Aug - 06:14:16 10° WSW 06:18:50 25° SSW 06:22:40 10° SE daylight
05 Aug - 22:51:47 10° SSE 22:54:09 11° SSE 22:56:27 10° SE night (unlit)
06 Aug - 00:36:02 10° SW 00:42:38 28° SSE 00:48:35 10° ESE night (unlit)
06 Aug - 02:24:10 10° WSW 02:31:20 44° S 02:37:20 10° ESE visible
06 Aug - 04:13:27 10° WSW 04:19:55 44° S 04:25:09 10° ESE visible
06 Aug - 06:03:21 10° WSW 06:07:58 24° SSW 06:11:52 10° SSE visible
06 Aug - 22:39:18 10° S 22:43:05 14° SSE 22:46:48 10° ESE visible
07 Aug - 00:24:39 10° SW 00:31:37 32° SSE 00:37:57 10° ESE night (unlit)
07 Aug - 02:12:59 10° WSW 02:20:24 47° S 02:26:38 10° ESE visible
07 Aug - 04:02:22 10° WSW 04:09:02 44° S 04:14:28 10° ESE visible
07 Aug - 05:52:25 10° WSW 05:57:05 23° SSW 06:01:01 10° SSE visible
07 Aug - 22:27:20 10° S 22:32:01 16° SSE 22:36:38 10° ESE visible
08 Aug - 00:13:20 10° SW 00:20:35 35° SSE 00:27:15 10° E night (unlit)
08 Aug - 02:01:50 10° WSW 02:09:25 49° S 02:15:55 10° ESE night (unlit)
08 Aug - 03:51:16 10° W 03:58:07 43° SSW 04:03:44 10° ESE visible
08 Aug - 05:41:31 10° WSW 05:46:09 21° SSW 05:50:08 10° SSE visible
08 Aug - 22:15:38 10° SSW 22:20:55 19° SSE 22:26:12 10° ESE visible
09 Aug - 00:02:05 10° SW 00:09:31 38° SSE 00:16:30 10° E visible
09 Aug - 01:50:41 10° WSW 01:58:26 51° S 02:05:10 10° ESE night (unlit)
09 Aug - 03:40:11 10° W 03:47:09 42° SSW 03:52:58 10° SE visible
09 Aug - 05:30:38 10° WSW 05:35:12 20° SSW 05:39:11 10° SSE visible
09 Aug - 22:04:06 10° SSW 22:09:49 21° SSE 22:15:37 10° ESE visible
09 Aug - 23:50:53 10° SW 23:58:28 41° SSE 00:05:41 10° E visible
10 Aug - 01:39:34 10° WSW 01:47:26 52° S 01:54:22 10° ESE night (unlit)
10 Aug - 03:29:06 10° W 03:36:11 41° SSW 03:42:10 10° SE visible
10 Aug - 05:19:47 10° WSW 05:24:14 18° SSW 05:28:08 10° SSE visible
10 Aug - 21:52:42 10° SSW 21:58:43 24° SSE 22:04:56 10° ESE visible
10 Aug - 23:39:44 10° SW 23:47:24 44° SSE 23:54:50 10° E visible
11 Aug - 01:28:29 10° WSW 01:36:24 53° S 01:43:33 10° ESE night (unlit)
11 Aug - 03:18:03 10° W 03:25:12 39° SSW 03:31:19 10° SE visible
11 Aug - 05:09:00 10° WSW 05:13:14 17° SSW 05:17:00 10° S visible
11 Aug - 21:41:23 10° SSW 21:47:37 26° SSE 21:54:08 10° ESE visible
11 Aug - 23:28:38 10° WSW 23:36:20 46° SSE 23:43:57 10° E visible
12 Aug - 01:17:25 10° WSW 01:25:23 53° S 01:32:41 10° ESE night (unlit)
12 Aug - 03:07:00 10° W 03:14:10 37° SSW 03:20:25 10° SE night (unlit)
12 Aug - 04:58:18 10° WSW 05:02:12 15° SSW 05:05:46 10° S visible
12 Aug - 21:30:11 10° SSW 21:36:31 29° SSE 21:43:17 10° E visible
12 Aug - 23:17:35 10° WSW 23:25:16 48° S 23:33:01 10° E visible
13 Aug - 01:06:23 10° WSW 01:14:21 52° S 01:21:47 10° ESE visible
13 Aug - 02:56:00 10° W 03:03:07 35° SSW 03:09:29 10° SE night (unlit)
13 Aug - 04:47:43 10° WSW 04:51:09 14° SW 04:54:21 10° S visible
13 Aug - 19:35:38 10° SSE 19:37:25 11° SE 19:39:14 10° SE daylight
13 Aug - 21:19:03 10° SW 21:25:26 31° SSE 21:32:23 10° E visible
13 Aug - 23:06:35 10° WSW 23:14:11 50° S 23:22:04 10° E visible
